Weather History for Columbia Owens, SC

Change the Weather History Date:

Saturday, January 11, 2014

  Actual Average Record
Temperature  
Mean Temperature 60 °F 46 °F  
Max Temperature 69 °F 55 °F 75 °F (2013)
Min Temperature 50 °F 36 °F 21 °F (2004)
Degree Days  
Heating Degree Days 5 20  
Month to date heating degree days 263 220  
Since 1 July heating degree days 1097 1120  
Cooling Degree Days 0 0  
Month to date cooling degree days 0 0  
Year to date cooling degree days 0 0  
Growing Degree Days 10 (Base 50)    
Moisture  
Dew Point 59 °F    
Average Humidity 94    
Maximum Humidity 100    
Minimum Humidity 77    
Precipitation  
Precipitation 0.78 in 0.09 in 0.78 in (2014)
Month to date precipitation 3.41 1.26  
Year to date precipitation 3.41 1.26  
Sea Level Pressure  
Sea Level Pressure 29.83 in    
Wind  
Wind Speed 6 mph (SSW)    
Max Wind Speed 21 mph    
Max Gust Speed 32 mph    
Visibility 5 miles    
Events Fog , Rain    
T = Trace of Precipitation, MM = Missing Value Source: NWS Daily Summary

Daily Weather History Graph

Daily Weather History Graph

Search for Another Location

Airport:

Trip Planner

Search our weather history database for the weather conditions in past years. The results will help you decide how hot, cold, wet, or windy it might be!

Date:

Astronomy

Jan. 11, 2014 Rise Set
Actual Time 7:29 AM EST 5:34 PM EST
Civil Twilight 7:02 AM EST 6:01 PM EST
Nautical Twilight 6:31 AM EST 6:32 PM EST
Astronomical Twilight 6:01 AM EST 7:02 PM EST
Moon 2:15 PM EST (1/11) 3:35 AM EST (1/11)
Length of Visible Light 10h 59m
Length of Day
10h 04m
Waxing Gibbous, 83% of the Moon is Illuminated
Jan 11
Waxing Gibbous
Jan 15
Full
Jan 24
Last Quarter
Jan 30
New
Feb 6
First Quarter

Hourly Weather History & Observations

Time (EST) Temp. Dew Point Humidity Pressure Visibility Wind Dir Wind Speed Gust Speed Precip Events Conditions
12:53 AM 51.1 °F 50.0 °F 96% 30.06 in 0.5 mi Calm Calm - N/A Fog Fog
1:53 AM 51.1 °F 50.0 °F 96% 30.03 in 0.5 mi Calm Calm - N/A Fog Fog
2:53 AM 52.0 °F 51.1 °F 97% 29.99 in 0.2 mi West 3.5 mph - N/A Fog Fog
3:53 AM 51.1 °F 51.1 °F 100% 29.96 in 0.5 mi Calm Calm - N/A Fog Fog
4:53 AM 53.1 °F 53.1 °F 100% 29.95 in 0.5 mi Calm Calm - N/A Fog Fog
5:53 AM 57.9 °F 57.9 °F 100% 29.93 in 0.5 mi SE 3.5 mph - N/A Fog Fog
6:24 AM 61.0 °F 60.1 °F 97% 29.93 in 1.2 mi South 5.8 mph - N/A   Overcast
6:28 AM 61.0 °F 61.0 °F 100% 29.93 in 3.0 mi South 5.8 mph - N/A   Overcast
6:53 AM 62.1 °F 61.0 °F 96% 29.91 in 5.0 mi South 5.8 mph - N/A   Overcast
7:17 AM 63.0 °F 63.0 °F 100% 29.91 in 8.0 mi South 9.2 mph - N/A   Overcast
7:53 AM 64.0 °F 64.0 °F 100% 29.91 in 6.0 mi SSW 10.4 mph - N/A   Overcast
8:10 AM 64.9 °F 64.0 °F 97% 29.91 in 2.5 mi SSW 10.4 mph 19.6 mph N/A   Overcast
8:18 AM 64.9 °F 64.0 °F 97% 29.91 in 3.0 mi SSW 15.0 mph 20.7 mph N/A   Overcast
8:53 AM 66.9 °F 64.0 °F 90% 29.91 in 10.0 mi SSW 11.5 mph 17.3 mph N/A   Overcast
9:53 AM 68.0 °F 64.0 °F 87% 29.85 in 8.0 mi SSE 12.7 mph 19.6 mph 0.00 in Rain Light Rain
10:03 AM 66.9 °F 64.9 °F 93% 29.82 in 6.0 mi SSE 11.5 mph 21.9 mph 0.01 in Rain Light Rain
10:22 AM 68.0 °F 64.9 °F 90% 29.86 in 10.0 mi SSW 10.4 mph 20.7 mph 0.02 in   Overcast
10:39 AM 68.0 °F 64.9 °F 90% 29.86 in 10.0 mi South 12.7 mph 20.7 mph 0.02 in   Overcast
10:53 AM 68.0 °F 64.9 °F 90% 29.85 in 10.0 mi South 10.4 mph - 0.02 in   Overcast
11:34 AM 69.1 °F 64.9 °F 87% 29.82 in 10.0 mi SSW 13.8 mph - N/A   Overcast
11:53 AM 68.0 °F 64.9 °F 90% 29.79 in 7.0 mi SSW 13.8 mph 23.0 mph 0.01 in Rain Light Rain
12:17 PM 68.0 °F 66.0 °F 93% 29.81 in 7.0 mi SSW 9.2 mph 20.7 mph 0.01 in Rain Light Rain
12:43 PM 68.0 °F 66.0 °F 93% 29.78 in 4.0 mi SSW 8.1 mph - 0.04 in Rain Light Rain
12:53 PM 68.0 °F 66.0 °F 93% 29.77 in 5.0 mi SSW 9.2 mph - 0.05 in Rain Light Rain
1:53 PM 62.1 °F 57.9 °F 86% 29.78 in 4.0 mi NW 16.1 mph 21.9 mph 0.07 in Rain Light Rain
1:55 PM 61.0 °F 57.0 °F 87% 29.79 in 1.5 mi WNW 16.1 mph 20.7 mph 0.05 in Rain Heavy Rain
1:59 PM 61.0 °F 57.9 °F 90% 29.78 in 0.8 mi WNW 11.5 mph 23.0 mph 0.12 in Rain Heavy Rain
2:19 PM 59.0 °F 57.9 °F 96% 29.78 in 1.0 mi WNW 10.4 mph - 0.43 in Rain Heavy Rain
2:28 PM 59.0 °F 57.9 °F 96% 29.78 in 1.5 mi Variable 5.8 mph - 0.48 in Rain Heavy Rain
2:39 PM 59.0 °F 57.9 °F 96% 29.77 in 3.0 mi Variable 3.5 mph - 0.50 in Rain Rain
2:53 PM 59.0 °F 57.9 °F 96% 29.75 in 5.0 mi Calm Calm - 0.52 in Rain Light Rain
3:49 PM 59.0 °F 57.2 °F 94% 29.73 in 1.8 mi Variable 4.6 mph - 0.07 in Rain Rain
3:50 PM 59.0 °F 57.9 °F 96% 29.74 in 1.8 mi Variable 5.8 mph - 0.07 in Rain Rain
3:57 PM 59.0 °F 57.9 °F 96% 29.74 in 3.0 mi Variable 5.8 mph - 0.02 in Rain Rain
4:53 PM 59.0 °F 57.9 °F 96% 29.73 in 10.0 mi South 4.6 mph - 0.03 in   Scattered Clouds
5:53 PM 57.9 °F 57.0 °F 97% 29.71 in 9.0 mi South 3.5 mph - N/A   Clear
6:45 PM 57.0 °F 55.0 °F 93% 29.73 in 2.0 mi South 3.5 mph - N/A   Clear
6:53 PM 55.9 °F 55.0 °F 97% 29.73 in 10.0 mi South 3.5 mph - N/A   Clear
7:53 PM 55.0 °F 54.0 °F 96% 29.75 in 10.0 mi Calm Calm - N/A   Clear
8:22 PM 57.0 °F 55.9 °F 96% 29.76 in 10.0 mi SW 5.8 mph - N/A   Mostly Cloudy
8:44 PM 57.9 °F 55.0 °F 90% 29.76 in 10.0 mi SW 8.1 mph - N/A   Scattered Clouds
8:53 PM 57.0 °F 55.0 °F 93% 29.75 in 10.0 mi SW 6.9 mph - N/A   Partly Cloudy
9:53 PM 57.0 °F 55.0 °F 93% 29.76 in 10.0 mi WSW 6.9 mph - N/A   Clear
10:53 PM 54.0 °F 46.9 °F 77% 29.80 in 10.0 mi NW 4.6 mph - 0.01 in   Partly Cloudy
11:53 PM 54.0 °F 48.0 °F 80% 29.81 in 10.0 mi West 8.1 mph - N/A   Clear